0 HST 1 20580U 90037B 26209.08014815 .00006899 00000-0 21494-3 0 9995 2 20580 28.4723 160.9885 0001698 238.9636 121.0793 15.31181501794842 0 ISS (ZARYA) 1 25544U 98067A 26209.15252568 .00010831 00000-0 20282-3 0 9993 2 25544 51.6320 97.3682 0007093 345.6120 14.4666 15.49220842578109 0 CXO 1 25867U 99040B 26211.69091559 .00000892 00000-0 00000-0 0 9995 2 25867 56.7373 115.5572 7768340 309.8096 0.7284 0.37795216 17488